TimeCDT,TemperatureF,Dew PointF,Humidity,Sea Level PressureIn,VisibilityMPH,Wind Direction,Wind SpeedMPH,Gust SpeedMPH,PrecipitationIn,Events,Conditions,WindDirDegrees,DateUTC
12:15 AM,33.8,32.0,93,30.24,10.0,NW,8.1,-,N/A,,Clear,310,2012-10-10 05:15:00
12:35 AM,33.8,32.0,93,30.24,10.0,WNW,9.2,-,N/A,,Clear,300,2012-10-10 05:35:00
12:55 AM,32.0,32.0,100,30.24,10.0,WNW,5.8,-,N/A,,Clear,290,2012-10-10 05:55:00
1:15 AM,33.8,32.0,93,30.23,10.0,WNW,6.9,-,N/A,,Clear,290,2012-10-10 06:15:00
1:35 AM,32.0,32.0,100,30.23,10.0,WNW,8.1,-,N/A,,Clear,300,2012-10-10 06:35:00
1:55 AM,32.0,32.0,100,30.24,10.0,WNW,5.8,-,N/A,,Clear,300,2012-10-10 06:55:00
2:15 AM,32.0,32.0,100,30.24,10.0,WNW,4.6,-,N/A,,Clear,290,2012-10-10 07:15:00
2:35 AM,32.0,32.0,100,30.24,10.0,WNW,3.5,-,N/A,,Clear,290,2012-10-10 07:35:00
2:55 AM,30.2,30.2,100,30.24,10.0,WSW,5.8,-,N/A,,Clear,250,2012-10-10 07:55:00
3:15 AM,30.2,30.2,100,30.25,10.0,WSW,8.1,-,N/A,,Clear,240,2012-10-10 08:15:00
3:35 AM,30.2,30.2,100,30.24,10.0,West,5.8,-,N/A,,Clear,270,2012-10-10 08:35:00
3:55 AM,30.2,30.2,100,30.24,10.0,West,8.1,-,N/A,,Clear,270,2012-10-10 08:55:00
4:15 AM,32.0,32.0,100,30.23,10.0,WNW,9.2,-,N/A,,Clear,290,2012-10-10 09:15:00
4:35 AM,32.0,32.0,100,30.23,10.0,WSW,5.8,-,N/A,,Clear,250,2012-10-10 09:35:00
4:55 AM,30.2,30.2,100,30.24,10.0,WSW,4.6,-,N/A,,Clear,250,2012-10-10 09:55:00
5:15 AM,28.4,28.4,100,30.23,10.0,WSW,6.9,-,N/A,,Clear,250,2012-10-10 10:15:00
5:35 AM,30.2,30.2,100,30.23,10.0,West,4.6,-,N/A,,Clear,260,2012-10-10 10:35:00
5:55 AM,28.4,28.4,100,30.23,10.0,WSW,5.8,-,N/A,,Clear,240,2012-10-10 10:55:00
6:15 AM,30.2,30.2,100,30.23,10.0,WSW,3.5,-,N/A,,Clear,240,2012-10-10 11:15:00
6:35 AM,30.2,30.2,100,30.23,10.0,WSW,8.1,-,N/A,,Clear,240,2012-10-10 11:35:00
6:55 AM,28.4,28.4,100,30.23,10.0,WSW,5.8,-,N/A,,Clear,240,2012-10-10 11:55:00
7:15 AM,28.4,28.4,100,30.24,10.0,SW,5.8,-,N/A,,Clear,230,2012-10-10 12:15:00
7:35 AM,28.4,28.4,100,30.23,10.0,WSW,3.5,-,N/A,,Clear,240,2012-10-10 12:35:00
7:55 AM,28.4,28.4,100,30.23,10.0,SW,8.1,-,N/A,,Clear,230,2012-10-10 12:55:00
8:15 AM,32.0,30.2,93,30.23,10.0,SW,8.1,-,N/A,,Clear,230,2012-10-10 13:15:00
8:35 AM,32.0,32.0,100,30.24,10.0,SW,8.1,-,N/A,,Clear,220,2012-10-10 13:35:00
8:55 AM,33.8,33.8,100,30.24,10.0,SW,8.1,-,N/A,,Clear,220,2012-10-10 13:55:00
9:15 AM,39.2,35.6,87,30.24,10.0,SW,5.8,-,N/A,,Clear,220,2012-10-10 14:15:00
9:35 AM,44.6,37.4,76,30.24,10.0,SSW,8.1,-,N/A,,Clear,200,2012-10-10 14:35:00
9:55 AM,46.4,35.6,66,30.24,10.0,SSW,10.4,-,N/A,,Clear,200,2012-10-10 14:55:00
10:15 AM,50.0,35.6,58,30.24,10.0,SSW,11.5,-,N/A,,Clear,200,2012-10-10 15:15:00
10:35 AM,51.8,35.6,54,30.23,10.0,SSW,16.1,-,N/A,,Clear,200,2012-10-10 15:35:00
10:55 AM,51.8,33.8,50,30.23,10.0,SSW,16.1,20.7,N/A,,Clear,210,2012-10-10 15:55:00
11:15 AM,53.6,33.8,47,30.23,10.0,South,16.1,-,N/A,,Clear,190,2012-10-10 16:15:00
11:35 AM,53.6,32.0,44,30.22,10.0,SSW,17.3,23.0,N/A,,Clear,200,2012-10-10 16:35:00
11:55 AM,55.4,32.0,41,30.22,10.0,SSW,16.1,23.0,N/A,,Clear,200,2012-10-10 16:55:00
12:15 PM,55.4,32.0,41,30.21,10.0,SSW,15.0,19.6,N/A,,Clear,200,2012-10-10 17:15:00
12:35 PM,55.4,32.0,41,30.20,10.0,SSW,13.8,18.4,N/A,,Clear,200,2012-10-10 17:35:00
12:55 PM,57.2,33.8,41,30.19,10.0,SSW,16.1,20.7,N/A,,Clear,200,2012-10-10 17:55:00
1:15 PM,59.0,35.6,42,30.18,10.0,South,18.4,-,N/A,,Clear,190,2012-10-10 18:15:00
1:35 PM,59.0,33.8,39,30.16,10.0,South,13.8,19.6,N/A,,Clear,180,2012-10-10 18:35:00
1:55 PM,60.8,35.6,39,30.14,10.0,South,16.1,23.0,N/A,,Clear,180,2012-10-10 18:55:00
2:15 PM,60.8,35.6,39,30.13,10.0,South,17.3,26.5,N/A,,Clear,180,2012-10-10 19:15:00
2:35 PM,62.6,35.6,37,30.11,10.0,South,17.3,26.5,N/A,,Clear,190,2012-10-10 19:35:00
2:55 PM,62.6,35.6,37,30.10,10.0,South,19.6,26.5,N/A,,Clear,180,2012-10-10 19:55:00
3:15 PM,62.6,35.6,37,30.09,10.0,South,18.4,26.5,N/A,,Clear,180,2012-10-10 20:15:00
3:35 PM,62.6,35.6,37,30.08,10.0,South,23.0,28.8,N/A,,Clear,190,2012-10-10 20:35:00
3:55 PM,60.8,35.6,39,30.07,10.0,South,16.1,26.5,N/A,,Clear,190,2012-10-10 20:55:00
4:15 PM,60.8,35.6,39,30.07,10.0,South,18.4,21.9,N/A,,Clear,180,2012-10-10 21:15:00
4:35 PM,62.6,35.6,37,30.06,10.0,South,16.1,25.3,N/A,,Clear,190,2012-10-10 21:35:00
4:55 PM,60.8,35.6,39,30.05,10.0,South,15.0,21.9,N/A,,Clear,180,2012-10-10 21:55:00
5:15 PM,62.6,35.6,37,30.05,10.0,South,17.3,23.0,N/A,,Clear,180,2012-10-10 22:15:00
5:35 PM,62.6,37.4,39,30.04,10.0,South,15.0,21.9,N/A,,Clear,190,2012-10-10 22:35:00
5:55 PM,64.4,37.4,37,30.03,10.0,South,21.9,26.5,N/A,,Clear,190,2012-10-10 22:55:00
6:15 PM,62.6,37.4,39,30.03,10.0,South,17.3,24.2,N/A,,Clear,180,2012-10-10 23:15:00
6:35 PM,60.8,37.4,42,30.02,10.0,South,16.1,19.6,N/A,,Clear,180,2012-10-10 23:35:00
6:55 PM,60.8,35.6,39,30.02,10.0,South,11.5,18.4,N/A,,Clear,180,2012-10-10 23:55:00
7:15 PM,57.2,35.6,44,30.02,10.0,South,11.5,-,N/A,,Clear,170,2012-10-11 00:15:00
7:35 PM,55.4,35.6,47,30.02,10.0,SSE,11.5,-,N/A,,Clear,160,2012-10-11 00:35:00
7:55 PM,55.4,35.6,47,30.02,10.0,SSE,12.7,-,N/A,,Clear,160,2012-10-11 00:55:00
8:15 PM,53.6,35.6,51,30.02,10.0,SSE,12.7,-,N/A,,Clear,160,2012-10-11 01:15:00
8:35 PM,53.6,35.6,51,30.02,10.0,SSE,11.5,-,N/A,,Clear,160,2012-10-11 01:35:00
8:55 PM,51.8,35.6,54,30.02,10.0,SSE,11.5,-,N/A,,Clear,160,2012-10-11 01:55:00
9:15 PM,50.0,35.6,58,30.02,10.0,SSE,10.4,-,N/A,,Clear,160,2012-10-11 02:15:00
9:35 PM,50.0,35.6,58,30.02,10.0,South,10.4,-,N/A,,Clear,170,2012-10-11 02:35:00
9:55 PM,50.0,35.6,58,30.02,10.0,South,10.4,-,N/A,,Clear,170,2012-10-11 02:55:00
10:15 PM,50.0,35.6,58,30.02,10.0,South,11.5,-,N/A,,Clear,170,2012-10-11 03:15:00
10:35 PM,50.0,35.6,58,30.01,10.0,South,12.7,-,N/A,,Clear,170,2012-10-11 03:35:00
10:55 PM,50.0,35.6,58,30.01,10.0,South,12.7,-,N/A,,Clear,170,2012-10-11 03:55:00
11:15 PM,50.0,37.4,62,30.01,10.0,South,13.8,-,N/A,,Clear,170,2012-10-11 04:15:00
11:35 PM,50.0,37.4,62,30.01,10.0,South,11.5,17.3,N/A,,Clear,180,2012-10-11 04:35:00
11:55 PM,51.8,37.4,58,30.00,10.0,South,13.8,-,N/A,,Clear,190,2012-10-11 04:55:00